SCP
0 0 0 0 0 0 0 -0 -0 -0 -0 -0 0 0 0 0 0 0 0 0 0 0 0 0 0 0 0 0 0 0 0 0 0 0 2 3 3 3 3 2 3 2 1 1
0 0 0 0 0 0 -0 -0 -0 -0 -0 -0 0 0 0 0 0 0 0 0 0 0 0 0 0 0 0 0 0 0 0 0 0 0 0 2 4 3 3 3 3 2 2 1
0 0 0 0 0 0 0 0 0 -0 -0 0 0 0 0 0 0 -0 -0 -0 -0 -0 0 0 0 0 0 0 0 0 0 0 0 0 0 0 1 3 3 5 5 4 3 2
0 0 0 0 0 0 0 0 -0 -0 0 0 0 -0 0 0 0 0 -0 0 -0 -0 -0 0 0 0 0 0 0 0 0 0 0 0 0 0 0 2 5 9 8 7 5 3
0 0 -0 -0 0 0 0 -0 0 0 0 -0 0 -0 0 0 0 0 0 0 0 0 0 0 0 0 0 0 0 0 0 0 0 0 0 0 0 0 1 5 6 6 4 3
0 0 0 0 0 0 -0 -0 0 0 -0 -0 -0 0 0 0 -0 0 0 0 0 0 0 0 0 0 0 0 0 0 0 0 0 0 0 0 0 0 0 4 3 2 3 3
-0 0 0 0 0 -0 -0 0 -0 0 -0 -0 0 0 -0 -0 -0 0 0 0 0 0 0 0 0 0 0 -0 0 0 0 0 0 0 0 0 0 0 0 0 4 3 3 3
0 0 0 0 0 0 0 0 0 -0 0 0 0 -0 -0 -0 -0 0 0 0 0 0 0 0 0 0 0 0 0 0 0 0 0 0 0 0 0 0 0 0 0 2 3 3
0 0 0 0 -0 0 0 0 0 0 0 0 0 -0 -0 -0 0 0 0 0 0 0 0 0 0 0 0 0 0 0 0 0 0 0 0 0 1 0 0 0 0 1 2 2
0 0 -0 -0 0 0 0 0 0 0 0 0 -0 -0 -0 0 0 0 0 0 0 0 0 0 0 0 0 0 0 0 -0 0 0 0 0 0 0 0 0 0 0 0 1 1
0 0 -0 0 -0 0 0 0 0 0 0 0 -0 -0 0 -0 0 0 0 0 0 0 0 0 0 0 0 0 0 0 0 -0 0 0 0 0 0 0 1 1 0 1 1 1
0 0 0 -0 -0 0 0 0 0 -0 -0 0 0 0 0 0 0 0 0 0 0 0 0 0 0 0 0 0 0 0 0 0 0 0 0 0 0 0 0 0 0 0 0 0
0 -0 -0 -0 0 -0 0 0 0 0 0 -0 -0 0 0 0 0 0 0 0 0 0 0 0 0 0 0 0 0 0 -0 0 -0 0 0 0 0 0 0 0 0 0 0 0
0 0 -0 -0 -0 -0 0 0 0 0 0 0 -0 0 0 0 0 0 0 0 0 0 0 0 0 0 0 0 0 0 0 -0 -0 -0 -0 -0 0 0 0 0 0 0 0 0
0 -0 -0 -0 -0 0 0 0 0 0 0 -0 -0 0 0 0 0 0 0 0 0 0 0 0 0 0 0 0 0 0 0 0 -0 -0 -0 -0 0 0 0 0 0 0 0 0
0 -0 -0 -0 -0 0 0 -0 0 -0 -0 0 -0 -0 -0 0 0 0 0 0 0 0 0 0 0 0 0 0 0 0 0 0 0 0 -0 0 0 0 0 0 0 0 0 0
0 -0 -0 -0 -0 -0 -0 -0 -0 -0 0 0 -0 -0 -0 0 0 0 0 0 0 0 0 0 0 0 0 0 0 0 0 0 0 0 0 -0 0 0 0 -0 0 0 0 0
0 -0 -0 0 0 0 0 -0 -0 -0 -0 0 0 -0 -0 -0 -0 0 0 0 0 0 0 0 0 0 0 -0 0 0 0 0 0 0 -0 0 0 0 0 -0 0 0 0 0
0 -0 -0 0 0 0 0 -0 -0 -0 -0 -0 -0 0 0 -0 0 0 0 0 0 0 0 0 0 0 0 0 -0 0 0 0 0 0 0 0 0 0 0 0 -0 -0 0 0
0 -0 -0 -0 -0 -0 0 -0 -0 -0 -0 -0 -0 -0 -0 -0 -0 0 0 0 0 0 0 0 0 0 0 0 0 0 0 0 0 0 0 0 0 0 0 0 0 0 0 0
0 0 -0 0 -0 -0 0 0 0 -0 -0 -0 -0 -0 -0 -0 -0 -0 -0 0 -0 0 0 0 0 0 0 0 0 0 0 -0 -0 -0 0 0 0 0 0 0 0 0 0 0
0 0 0 0 -0 -0 0 0 0 0 -0 -0 -0 -0 -0 -0 -0 -0 0 -0 0 0 0 0 0 -0 0 0 0 0 0 0 0 -0 -0 -0 0 0 0 0 -0 0 0 0
0 0 0 -0 -0 -0 0 -0 -0 0 -0 -0 -0 -0 0 0 0 0 0 -0 -0 -0 0 0 -0 0 0 0 0 0 0 0 0 0 0 0 -0 0 0 -0 -0 0 -0 0
0 0 -0 -0 -0 -0 -0 -0 -0 -0 0 0 0 0 -0 -0 0 -0 0 0 -0 -0 0 0 -0 0 -0 0 0 0 0 0 0 0 0 0 0 0 0 0 0 0 -0 -0
-0 -0 -0 -0 0 0 -0 -0 -0 -0 -0 0 0 0 0 -0 -0 -0 -0 0 0 0 0 0 -0 -0 0 0 0 0 0 0 0 0 0 0 0 0 -0 0 0 0 0 0
-0 0 0 0 0 0 0 0 0 0 0 0 -0 -0 -0 -0 -0 -0 -0 -0 0 0 0 0 0 -0 -0 -0 0 -0 0 -0 -0 -0 -0 -0 0 0 0 -0 -0 0 0 0
0 0 0 0 0 0 0 0 0 0 0 0 -0 -0 -0 -0 -0 -0 -0 -0 -0 -0 -0 0 0 0 -0 0 0 0 0 -0 -0 -0 -0 -0 -0 -0 -0 -0 -0 0 0 0
Wind_Speed_500mb
34 39 37 34 33 34 36 38 37 42 49 48 42 40 42 56 59 62 62 62 72 76 77 76 74 71 66 58 52 44 37 32 23 23 27 34 43 49 65 68 63 56 51 48
30 34 32 36 36 37 37 37 44 41 44 43 52 55 54 58 66 69 77 81 89 92 83 72 66 59 56 56 56 49 45 37 29 30 12 33 40 52 58 56 54 53 52 54
25 28 20 26 22 18 16 21 28 31 40 45 44 39 57 67 71 81 88 92 91 82 75 75 70 70 72 70 64 52 53 48 38 37 30 16 40 46 49 51 53 59 59 58
17 26 32 5 9 9 12 22 32 39 36 36 50 70 68 68 80 85 84 82 90 95 94 91 85 89 84 77 73 75 63 58 51 43 57 31 22 30 50 49 51 52 55 59
9 17 31 18 10 15 23 34 28 28 38 55 68 75 62 60 61 80 94 96 96 89 91 85 87 80 70 84 80 73 80 73 62 54 49 76 59 35 27 52 52 51 53 58
17 7 14 11 11 17 25 25 29 39 43 47 62 35 31 74 91 94 93 90 89 90 91 89 87 79 84 74 77 92 82 79 71 66 54 70 79 81 35 20 47 50 54 57
21 13 14 15 19 28 21 23 57 59 60 56 28 36 93 98 92 93 90 90 85 83 82 83 77 72 78 80 79 81 91 79 80 61 60 57 86 82 61 29 33 49 55 59
14 7 10 22 23 15 24 45 52 56 58 59 73 84 92 93 96 95 93 93 87 83 78 68 64 62 68 74 75 69 79 79 75 82 61 58 68 82 102 84 60 44 58 57
3 5 11 18 22 18 31 43 46 55 63 65 77 89 88 93 93 95 98 96 88 80 77 72 64 57 67 60 54 62 76 74 82 79 78 82 63 69 68 100 113 82 61 62
9 2 22 30 20 37 43 45 50 53 62 70 81 82 91 92 97 97 92 89 83 78 71 72 62 53 59 61 46 48 54 71 71 82 75 71 75 68 66 71 95 109 99 72
11 14 26 9 44 43 43 46 52 55 62 68 74 85 85 96 99 96 90 85 80 75 73 65 59 58 48 47 49 55 58 54 57 68 71 64 71 62 76 79 81 84 99 100
4 18 19 34 40 38 45 50 54 59 66 65 73 80 95 96 93 92 91 86 82 74 58 62 52 47 51 45 38 40 52 51 57 62 66 70 63 76 64 76 81 80 74 81
13 25 25 31 32 39 44 48 49 55 59 69 77 89 94 95 92 83 83 83 78 61 58 57 43 53 56 42 33 23 40 42 45 53 59 66 68 64 63 68 64 89 78 77
16 19 27 30 39 40 40 41 45 48 53 62 75 88 93 92 93 86 87 81 62 58 60 48 45 48 44 32 24 13 24 30 36 48 45 55 59 72 65 53 64 61 78 76
17 22 23 29 31 36 38 41 46 51 57 69 77 82 93 97 93 87 82 77 65 63 56 46 41 47 37 34 19 14 15 21 29 34 36 43 42 51 67 68 47 58 58 66
19 18 24 28 32 36 39 41 44 52 55 67 74 85 90 85 80 80 83 82 78 75 65 48 35 40 25 39 26 23 12 20 15 20 29 44 41 41 51 52 68 53 67 68
17 24 30 33 35 38 39 39 40 46 50 60 68 76 90 93 92 97 94 90 73 69 63 51 33 25 22 24 21 12 14 11 6 17 20 26 38 43 47 49 46 55 59 53
15 19 25 28 30 34 37 36 39 43 48 52 58 68 84 92 95 93 92 96 90 75 69 57 35 20 17 12 14 7 8 16 11 10 15 22 25 26 39 58 44 49 55 55
16 21 25 25 26 29 32 35 38 40 44 49 54 58 64 76 88 94 91 106 105 98 87 67 51 31 14 9 7 7 6 5 6 4 6 14 21 25 27 38 44 45 46 48
16 20 24 25 27 30 31 35 35 39 44 47 50 55 60 75 76 87 91 81 101 93 89 75 55 40 33 21 13 4 5 6 4 5 9 12 13 18 22 20 25 28 33 32
16 19 23 26 28 30 32 33 36 43 46 48 53 57 58 58 64 74 93 103 106 105 99 88 73 60 44 36 36 30 13 4 6 5 12 7 12 14 20 25 25 33 32 33
17 19 22 24 26 29 32 32 34 38 43 47 50 54 58 63 65 68 64 82 87 99 100 96 86 73 66 57 50 42 31 21 11 5 15 11 12 14 14 13 23 18 10 23
17 19 20 23 25 26 28 33 36 36 40 46 50 52 54 54 57 66 75 77 81 82 92 91 88 86 83 75 68 60 52 43 36 32 20 8 16 9 11 13 16 18 15 21
16 18 19 20 21 26 31 33 34 38 37 38 44 47 51 54 55 58 56 61 74 73 80 86 83 88 90 86 80 74 67 62 53 45 34 22 13 7 9 13 17 26 21 19
15 17 21 21 24 28 29 32 31 37 39 37 42 45 48 47 48 53 57 60 63 69 70 77 85 83 86 85 81 79 74 69 61 53 47 44 35 21 7 4 10 17 21 19
15 16 16 20 22 25 29 32 32 37 40 41 40 45 46 47 48 50 54 61 59 60 59 65 74 80 77 78 79 76 73 71 67 60 53 47 41 37 28 17 4 5 13 21
15 16 14 16 21 26 30 31 32 34 39 41 39 43 44 47 49 49 53 53 56 60 57 58 62 73 70 68 71 74 72 68 65 62 57 51 44 40 36 32 25 16 6 7
Wind_Direction_500mb
274 282 287 284 275 272 263 265 268 278 282 293 311 340 319 318 319 309 302 305 307 307 301 292 287 286 282 279 280 283 288 290 280 262 249 221 204 201 200 200 190 184 182 184
265 264 274 266 267 263 264 267 271 292 306 313 318 318 326 330 330 316 307 303 301 298 298 301 300 305 302 285 275 273 277 281 279 246 250 235 218 205 202 199 187 183 185 186
278 294 289 266 266 279 266 314 312 298 308 318 323 334 325 320 311 303 300 298 299 296 294 293 292 292 294 292 285 285 265 262 265 247 259 253 220 209 199 198 194 186 185 184
281 298 267 348 90 353 323 312 313 308 324 342 324 316 314 310 305 298 298 295 294 293 291 287 285 283 282 278 278 272 271 256 252 253 239 255 266 223 213 200 198 198 186 189
240 264 298 231 55 15 340 311 326 354 330 320 322 316 303 307 303 300 296 295 293 293 291 285 286 279 267 270 260 257 255 256 248 241 255 226 257 264 217 211 206 203 198 193
277 247 282 75 63 351 324 290 353 334 330 330 329 307 310 313 308 304 301 299 297 296 292 288 285 278 277 257 259 263 254 244 248 244 235 229 219 248 253 211 207 209 205 198
237 251 271 44 354 320 286 337 337 335 327 328 315 299 305 311 311 310 307 306 304 300 294 292 292 284 272 267 257 255 249 244 245 250 239 227 223 220 228 228 211 219 215 206
240 243 260 15 345 359 335 329 325 324 320 314 307 309 311 312 313 314 314 314 313 308 305 301 295 287 276 268 262 255 249 238 242 245 243 234 227 228 228 232 232 239 221 215
279 244 304 350 347 344 345 329 325 321 318 317 314 315 318 318 319 318 319 320 323 317 311 308 304 292 281 286 275 255 245 239 237 238 235 228 225 225 226 225 224 229 235 220
314 314 353 337 8 351 336 326 323 324 321 322 317 321 320 321 321 322 324 323 325 322 319 314 321 313 303 299 289 273 244 239 232 225 227 223 223 214 209 213 218 216 221 220
299 327 327 329 345 333 328 326 326 327 324 324 325 323 325 324 326 328 330 330 331 329 326 323 326 321 317 304 283 266 254 232 226 212 218 220 219 217 209 213 207 207 215 217
278 347 338 317 322 326 327 329 330 329 330 335 331 331 333 331 335 335 334 338 337 336 334 336 332 347 333 322 299 255 231 225 210 210 210 215 218 215 213 210 214 211 208 207
317 322 319 312 319 329 329 332 331 334 336 338 336 339 342 340 341 338 344 344 345 346 345 341 357 358 350 354 2 185 200 205 199 200 203 209 212 216 217 219 208 216 217 219
310 319 320 333 329 333 336 335 337 337 340 343 338 342 346 346 351 352 349 352 358 360 355 0 0 5 358 14 36 108 166 181 190 195 200 204 209 216 219 217 219 220 218 217
338 327 323 331 336 341 342 345 343 343 344 343 345 345 352 353 356 353 355 3 10 9 13 17 16 22 16 20 45 93 136 165 186 191 196 200 202 206 213 218 216 215 218 224
335 340 348 347 347 348 348 349 345 343 348 347 347 348 355 356 356 358 7 15 18 15 14 17 21 25 33 36 52 62 86 154 145 178 199 194 194 203 211 211 218 214 218 216
1 360 356 353 352 351 351 350 348 347 350 350 349 348 1 5 10 14 15 18 23 23 23 20 17 29 49 16 44 49 80 115 150 178 179 187 198 201 206 208 209 212 212 214
11 360 357 353 353 351 353 354 354 353 355 352 353 354 2 12 11 10 13 12 24 31 30 32 33 37 52 31 50 36 32 58 96 138 171 179 199 206 195 202 216 207 214 216
18 9 5 5 3 0 359 358 359 358 359 0 0 2 2 8 13 18 20 23 25 22 21 24 37 47 60 57 49 92 100 148 152 164 168 185 202 208 205 207 206 203 201 208
33 25 23 21 18 15 11 7 6 7 5 8 6 7 8 8 11 15 21 20 25 23 25 26 33 43 54 55 47 260 191 196 197 166 189 215 217 209 194 218 205 198 202 205
44 34 29 28 26 24 24 17 16 14 13 15 15 12 9 6 11 13 15 21 25 25 29 29 30 37 45 52 55 71 129 196 200 221 243 236 241 245 202 222 204 199 201 205
45 37 32 30 29 29 27 24 23 18 14 13 14 14 13 11 9 14 16 15 18 21 27 28 30 35 43 49 56 62 73 82 81 232 233 220 230 240 222 214 208 232 237 195
50 42 39 38 33 30 26 24 18 14 13 9 9 8 10 10 9 8 3 8 17 16 22 24 27 31 36 41 45 49 53 59 60 67 75 188 235 212 197 216 227 224 221 229
61 51 46 40 33 28 25 20 14 13 12 10 8 8 7 6 7 9 6 7 11 22 8 17 25 28 30 32 33 37 41 42 47 50 53 60 73 117 188 214 196 218 234 239
67 54 42 37 31 25 19 15 13 10 10 11 8 8 7 7 4 359 2 5 6 17 9 6 18 29 26 26 28 30 31 32 33 36 40 44 45 51 74 176 210 216 215 202
68 53 40 31 27 21 14 10 10 4 6 5 6 4 3 2 1 3 2 359 6 11 10 8 9 19 21 23 23 24 26 25 24 26 28 29 32 36 36 40 57 188 209 224
57 58 36 25 19 15 8 5 4 0 0 359 360 358 358 358 1 3 360 1 2 6 8 7 8 11 17 15 17 20 20 22 21 20 21 23 21 21 27 29 37 55 82 183
Wind_Speed_850mb
34 39 37 34 33 34 36 38 37 42 49 48 42 40 42 56 59 62 62 62 72 76 77 76 74 71 66 58 52 44 37 32 23 23 27 34 43 49 65 68 63 56 51 48
30 34 32 36 36 37 37 37 44 41 44 43 52 55 54 58 66 69 77 81 89 92 83 72 66 59 56 56 56 49 45 37 29 30 12 33 40 52 58 56 54 53 52 54
25 28 20 26 22 18 16 21 28 31 40 45 44 39 57 67 71 81 88 92 91 82 75 75 70 70 72 70 64 52 53 48 38 37 30 16 40 46 49 51 53 59 59 58
17 26 32 5 9 9 12 22 32 39 36 36 50 70 68 68 80 85 84 82 90 95 94 91 85 89 84 77 73 75 63 58 51 43 57 31 22 30 50 49 51 52 55 59
9 17 31 18 10 15 23 34 28 28 38 55 68 75 62 60 61 80 94 96 96 89 91 85 87 80 70 84 80 73 80 73 62 54 49 76 59 35 27 52 52 51 53 58
17 7 14 11 11 17 25 25 29 39 43 47 62 35 31 74 91 94 93 90 89 90 91 89 87 79 84 74 77 92 82 79 71 66 54 70 79 81 35 20 47 50 54 57
21 13 14 15 19 28 21 23 57 59 60 56 28 36 93 98 92 93 90 90 85 83 82 83 77 72 78 80 79 81 91 79 80 61 60 57 86 82 61 29 33 49 55 59
14 7 10 22 23 15 24 45 52 56 58 59 73 84 92 93 96 95 93 93 87 83 78 68 64 62 68 74 75 69 79 79 75 82 61 58 68 82 102 84 60 44 58 57
3 5 11 18 22 18 31 43 46 55 63 65 77 89 88 93 93 95 98 96 88 80 77 72 64 57 67 60 54 62 76 74 82 79 78 82 63 69 68 100 113 82 61 62
9 2 22 30 20 37 43 45 50 53 62 70 81 82 91 92 97 97 92 89 83 78 71 72 62 53 59 61 46 48 54 71 71 82 75 71 75 68 66 71 95 109 99 72
11 14 26 9 44 43 43 46 52 55 62 68 74 85 85 96 99 96 90 85 80 75 73 65 59 58 48 47 49 55 58 54 57 68 71 64 71 62 76 79 81 84 99 100
4 18 19 34 40 38 45 50 54 59 66 65 73 80 95 96 93 92 91 86 82 74 58 62 52 47 51 45 38 40 52 51 57 62 66 70 63 76 64 76 81 80 74 81
13 25 25 31 32 39 44 48 49 55 59 69 77 89 94 95 92 83 83 83 78 61 58 57 43 53 56 42 33 23 40 42 45 53 59 66 68 64 63 68 64 89 78 77
16 19 27 30 39 40 40 41 45 48 53 62 75 88 93 92 93 86 87 81 62 58 60 48 45 48 44 32 24 13 24 30 36 48 45 55 59 72 65 53 64 61 78 76
17 22 23 29 31 36 38 41 46 51 57 69 77 82 93 97 93 87 82 77 65 63 56 46 41 47 37 34 19 14 15 21 29 34 36 43 42 51 67 68 47 58 58 66
19 18 24 28 32 36 39 41 44 52 55 67 74 85 90 85 80 80 83 82 78 75 65 48 35 40 25 39 26 23 12 20 15 20 29 44 41 41 51 52 68 53 67 68
17 24 30 33 35 38 39 39 40 46 50 60 68 76 90 93 92 97 94 90 73 69 63 51 33 25 22 24 21 12 14 11 6 17 20 26 38 43 47 49 46 55 59 53
15 19 25 28 30 34 37 36 39 43 48 52 58 68 84 92 95 93 92 96 90 75 69 57 35 20 17 12 14 7 8 16 11 10 15 22 25 26 39 58 44 49 55 55
16 21 25 25 26 29 32 35 38 40 44 49 54 58 64 76 88 94 91 106 105 98 87 67 51 31 14 9 7 7 6 5 6 4 6 14 21 25 27 38 44 45 46 48
16 20 24 25 27 30 31 35 35 39 44 47 50 55 60 75 76 87 91 81 101 93 89 75 55 40 33 21 13 4 5 6 4 5 9 12 13 18 22 20 25 28 33 32
16 19 23 26 28 30 32 33 36 43 46 48 53 57 58 58 64 74 93 103 106 105 99 88 73 60 44 36 36 30 13 4 6 5 12 7 12 14 20 25 25 33 32 33
17 19 22 24 26 29 32 32 34 38 43 47 50 54 58 63 65 68 64 82 87 99 100 96 86 73 66 57 50 42 31 21 11 5 15 11 12 14 14 13 23 18 10 23
17 19 20 23 25 26 28 33 36 36 40 46 50 52 54 54 57 66 75 77 81 82 92 91 88 86 83 75 68 60 52 43 36 32 20 8 16 9 11 13 16 18 15 21
16 18 19 20 21 26 31 33 34 38 37 38 44 47 51 54 55 58 56 61 74 73 80 86 83 88 90 86 80 74 67 62 53 45 34 22 13 7 9 13 17 26 21 19
15 17 21 21 24 28 29 32 31 37 39 37 42 45 48 47 48 53 57 60 63 69 70 77 85 83 86 85 81 79 74 69 61 53 47 44 35 21 7 4 10 17 21 19
15 16 16 20 22 25 29 32 32 37 40 41 40 45 46 47 48 50 54 61 59 60 59 65 74 80 77 78 79 76 73 71 67 60 53 47 41 37 28 17 4 5 13 21
15 16 14 16 21 26 30 31 32 34 39 41 39 43 44 47 49 49 53 53 56 60 57 58 62 73 70 68 71 74 72 68 65 62 57 51 44 40 36 32 25 16 6 7
Wind_Direction_850mb
274 282 287 284 275 272 263 265 268 278 282 293 311 340 319 318 319 309 302 305 307 307 301 292 287 286 282 279 280 283 288 290 280 262 249 221 204 201 200 200 190 184 182 184
265 264 274 266 267 263 264 267 271 292 306 313 318 318 326 330 330 316 307 303 301 298 298 301 300 305 302 285 275 273 277 281 279 246 250 235 218 205 202 199 187 183 185 186
278 294 289 266 266 279 266 314 312 298 308 318 323 334 325 320 311 303 300 298 299 296 294 293 292 292 294 292 285 285 265 262 265 247 259 253 220 209 199 198 194 186 185 184
281 298 267 348 90 353 323 312 313 308 324 342 324 316 314 310 305 298 298 295 294 293 291 287 285 283 282 278 278 272 271 256 252 253 239 255 266 223 213 200 198 198 186 189
240 264 298 231 55 15 340 311 326 354 330 320 322 316 303 307 303 300 296 295 293 293 291 285 286 279 267 270 260 257 255 256 248 241 255 226 257 264 217 211 206 203 198 193
277 247 282 75 63 351 324 290 353 334 330 330 329 307 310 313 308 304 301 299 297 296 292 288 285 278 277 257 259 263 254 244 248 244 235 229 219 248 253 211 207 209 205 198
237 251 271 44 354 320 286 337 337 335 327 328 315 299 305 311 311 310 307 306 304 300 294 292 292 284 272 267 257 255 249 244 245 250 239 227 223 220 228 228 211 219 215 206
240 243 260 15 345 359 335 329 325 324 320 314 307 309 311 312 313 314 314 314 313 308 305 301 295 287 276 268 262 255 249 238 242 245 243 234 227 228 228 232 232 239 221 215
279 244 304 350 347 344 345 329 325 321 318 317 314 315 318 318 319 318 319 320 323 317 311 308 304 292 281 286 275 255 245 239 237 238 235 228 225 225 226 225 224 229 235 220
314 314 353 337 8 351 336 326 323 324 321 322 317 321 320 321 321 322 324 323 325 322 319 314 321 313 303 299 289 273 244 239 232 225 227 223 223 214 209 213 218 216 221 220
299 327 327 329 345 333 328 326 326 327 324 324 325 323 325 324 326 328 330 330 331 329 326 323 326 321 317 304 283 266 254 232 226 212 218 220 219 217 209 213 207 207 215 217
278 347 338 317 322 326 327 329 330 329 330 335 331 331 333 331 335 335 334 338 337 336 334 336 332 347 333 322 299 255 231 225 210 210 210 215 218 215 213 210 214 211 208 207
317 322 319 312 319 329 329 332 331 334 336 338 336 339 342 340 341 338 344 344 345 346 345 341 357 358 350 354 2 185 200 205 199 200 203 209 212 216 217 219 208 216 217 219
310 319 320 333 329 333 336 335 337 337 340 343 338 342 346 346 351 352 349 352 358 360 355 0 0 5 358 14 36 108 166 181 190 195 200 204 209 216 219 217 219 220 218 217
338 327 323 331 336 341 342 345 343 343 344 343 345 345 352 353 356 353 355 3 10 9 13 17 16 22 16 20 45 93 136 165 186 191 196 200 202 206 213 218 216 215 218 224
335 340 348 347 347 348 348 349 345 343 348 347 347 348 355 356 356 358 7 15 18 15 14 17 21 25 33 36 52 62 86 154 145 178 199 194 194 203 211 211 218 214 218 216
1 360 356 353 352 351 351 350 348 347 350 350 349 348 1 5 10 14 15 18 23 23 23 20 17 29 49 16 44 49 80 115 150 178 179 187 198 201 206 208 209 212 212 214
11 360 357 353 353 351 353 354 354 353 355 352 353 354 2 12 11 10 13 12 24 31 30 32 33 37 52 31 50 36 32 58 96 138 171 179 199 206 195 202 216 207 214 216
18 9 5 5 3 0 359 358 359 358 359 0 0 2 2 8 13 18 20 23 25 22 21 24 37 47 60 57 49 92 100 148 152 164 168 185 202 208 205 207 206 203 201 208
33 25 23 21 18 15 11 7 6 7 5 8 6 7 8 8 11 15 21 20 25 23 25 26 33 43 54 55 47 260 191 196 197 166 189 215 217 209 194 218 205 198 202 205
44 34 29 28 26 24 24 17 16 14 13 15 15 12 9 6 11 13 15 21 25 25 29 29 30 37 45 52 55 71 129 196 200 221 243 236 241 245 202 222 204 199 201 205
45 37 32 30 29 29 27 24 23 18 14 13 14 14 13 11 9 14 16 15 18 21 27 28 30 35 43 49 56 62 73 82 81 232 233 220 230 240 222 214 208 232 237 195
50 42 39 38 33 30 26 24 18 14 13 9 9 8 10 10 9 8 3 8 17 16 22 24 27 31 36 41 45 49 53 59 60 67 75 188 235 212 197 216 227 224 221 229
61 51 46 40 33 28 25 20 14 13 12 10 8 8 7 6 7 9 6 7 11 22 8 17 25 28 30 32 33 37 41 42 47 50 53 60 73 117 188 214 196 218 234 239
67 54 42 37 31 25 19 15 13 10 10 11 8 8 7 7 4 359 2 5 6 17 9 6 18 29 26 26 28 30 31 32 33 36 40 44 45 51 74 176 210 216 215 202
68 53 40 31 27 21 14 10 10 4 6 5 6 4 3 2 1 3 2 359 6 11 10 8 9 19 21 23 23 24 26 25 24 26 28 29 32 36 36 40 57 188 209 224
57 58 36 25 19 15 8 5 4 0 0 359 360 358 358 358 1 3 360 1 2 6 8 7 8 11 17 15 17 20 20 22 21 20 21 23 21 21 27 29 37 55 82 183